EROS A1

Last updated on Thu Jul 07 2016 09:38:04 GMT+0000 (Coordinated Universal Time)

1 26631U 00079A 16189.05109989 .20884161 29118-5 17845-3 0 9994 2 26631 97.5215 309.5274 0021517 337.3677 22.8343 16.50691252866752

Satellite not in orbit

EROS A1